Flag for USA

Past Weather in Hopkinsville, Kentucky, USA — Yesterday and Last 2 Weeks

Now
61 °F

Partly sunny.


Feels Like: 61 °F
Forecast: 66 / 60 °F
Wind: 5 mph from East

Location: Fort Campbell U. S. Army Airfield
Current Time: Sep 24, 2020 at 7:45:51 am
Latest Report: Sep 24, 2020 at 6:56 am
Visibility: 10 mi
Pressure29.99 "Hg
Humidity: 100%
Dew Point: 61 °F
Location of HopkinsvilleLocation

Past Weather in Hopkinsville — Graph

°F

Hopkinsville Temperature Yesterday

Maximum temperature yesterday: 68 °F (at 1:56 pm)
Minimum temperature yesterday: 58 °F (at 5:56 am)
Average temperature yesterday: 62 °F

High & Low Weather Summary for the Past Weeks

 TemperatureHumidityPressure
High88 °F (Sep 11, 12:56 pm)100% (Sep 9, 5:56 am)30.38 "Hg (Sep 9, 5:56 am)
Low48 °F (Sep 19, 6:56 am)30% (Sep 21, 3:56 pm)29.90 "Hg (Sep 17, 4:56 pm)
Average70 °F82%30.12 "Hg
* Reported Sep 9 5:56 am — Sep 24 5:56 am, Hopkinsville. Weather by CustomWeather, © 2020

Note: Actual official high and low records may vary slightly from our data, if they occured in-between our weather recording intervals... More about our weather records

Hopkinsville Weather History for the Previous 24 Hours

Scroll right to see more
 ConditionsComfort  
Time TempWeatherWind HumidityBarometerVisibility
5:56 am
Thu, Sep 24
60 °FMore clouds than sun.3 mph100%29.98 "Hg10 mi
4:56 am60 °FPassing clouds.5 mph100%29.98 "Hg10 mi
3:56 am61 °FPassing clouds.No wind100%29.99 "Hg10 mi
2:56 am61 °FPassing clouds.5 mph100%30.00 "Hg10 mi
1:56 am61 °FPassing clouds.No wind100%30.02 "Hg10 mi
12:56 am62 °FMostly cloudy.No wind100%30.03 "Hg10 mi
11:56 pm
Wed, Sep 23
62 °FOvercast.3 mph100%30.04 "Hg10 mi
10:56 pm62 °FOvercast.3 mph100%30.04 "Hg10 mi
9:56 pm62 °FPassing clouds.5 mph100%30.05 "Hg10 mi
8:56 pm62 °FClear.3 mph100%30.05 "Hg10 mi
8:39 pm63 °FClear.3 mph100%30.05 "Hg10 mi
7:56 pm64 °FPassing clouds.No wind91%30.05 "Hg10 mi
6:56 pm65 °FOvercast.No wind81%30.05 "Hg10 mi
5:56 pm66 °FOvercast.5 mph77%30.05 "Hg10 mi
4:56 pm67 °FOvercast.5 mph74%30.06 "Hg10 mi
3:56 pm67 °FPartly sunny.7 mph74%30.05 "Hg10 mi
2:56 pm67 °FScattered clouds.No wind69%30.09 "Hg10 mi
1:56 pm68 °FPassing clouds.6 mph66%30.09 "Hg10 mi
12:56 pm67 °FPassing clouds.8 mph69%30.10 "Hg10 mi
11:56 am66 °FPassing clouds.5 mph73%30.11 "Hg10 mi
10:56 am64 °FMild.No wind77%30.14 "Hg10 mi
9:56 am62 °FPassing clouds.No wind89%30.14 "Hg10 mi
8:56 am60 °FSunny.5 mph100%30.13 "Hg10 mi
8:36 am59 °FSunny.7 mph100%30.13 "Hg10 mi
8:03 am59 °FLight rain. Passing clouds.3 mph100%30.13 "Hg10 mi
7:56 am58 °FSunny.3 mph100%30.13 "Hg10 mi
Weather by CustomWeather, © 2020

See weather overview